Location: Newark
(54.6072°N, 2.8847°W)
Time: 13:51:39
(UTC+00:00)

OTV 5 (USA 277) - Visible Passes

Search period start: 22 October 2019 00:00
Search period end: 01 November 2019 00:00
Orbit: 310 x 324 km, 54.5° (Epoch: 17 October)

Date Brightness Start Highest point End Pass type
(mag) Time Alt. Az. Time Alt. Az. Time Alt. Az.
30 Oct ? 19:07:21 10° SSW 19:07:33 11° SSW 19:07:33 11° SSW visible
31 Oct ? 17:49:19 10° SSE 17:50:23 12° SE 17:50:56 11° SE visible
31 Oct ? 19:21:31 10° SW 19:21:50 12° SW 19:21:50 12° SW visible
